Time,TemperatureF,DewpointF,PressureIn,WindDirection,WindDirectionDegrees,WindSpeedMPH,WindSpeedGustMPH,Humidity,HourlyPrecipIn,Conditions,Clouds,dailyrainin,SolarRadiationWatts/m^2,SoftwareType,DateUTC
2013-03-04 00:07:00,48.1,46.0,30.08,South,186,8.0,15.0,91,0.00,,,0.00,0,weatherlink.com 1.10,2013-03-04 08:07:00,
2013-03-04 00:22:00,48.0,46.0,30.08,SSE,147,6.0,11.0,91,0.00,,,0.00,0,weatherlink.com 1.10,2013-03-04 08:22:00,
2013-03-04 00:37:00,48.1,46.0,30.09,SSW,207,3.0,11.0,91,0.00,,,0.00,0,weatherlink.com 1.10,2013-03-04 08:37:00,
2013-03-04 00:52:00,48.1,46.0,30.09,South,186,4.0,11.0,91,0.00,,,0.00,0,weatherlink.com 1.10,2013-03-04 08:52:00,
2013-03-04 01:07:00,47.8,45.0,30.10,SSE,155,4.0,10.0,91,0.00,,,0.00,0,weatherlink.com 1.10,2013-03-04 09:07:00,
2013-03-04 01:22:00,47.7,45.0,30.10,SSE,153,6.0,11.0,91,0.00,,,0.00,0,weatherlink.com 1.10,2013-03-04 09:22:00,
2013-03-04 01:37:00,47.5,45.0,30.10,SSE,157,3.0,9.0,92,0.00,,,0.00,0,weatherlink.com 1.10,2013-03-04 09:37:00,
2013-03-04 01:52:00,47.5,45.0,30.10,ESE,112,5.0,10.0,92,0.00,,,0.00,0,weatherlink.com 1.10,2013-03-04 09:52:00,
2013-03-04 02:07:00,47.4,45.0,30.09,SSE,168,5.0,12.0,92,0.00,,,0.00,0,weatherlink.com 1.10,2013-03-04 10:07:00,
2013-03-04 02:22:00,47.4,45.0,30.10,SE,146,6.0,7.0,92,0.00,,,0.00,0,weatherlink.com 1.10,2013-03-04 10:22:00,
2013-03-04 02:37:00,47.5,45.0,30.10,ESE,109,5.0,9.0,92,0.00,,,0.00,0,weatherlink.com 1.10,2013-03-04 10:37:00,
2013-03-04 02:52:00,47.4,45.0,30.10,SSE,153,4.0,8.0,92,0.00,,,0.00,0,weatherlink.com 1.10,2013-03-04 10:52:00,
2013-03-04 03:07:00,47.5,45.0,30.10,ESE,120,3.0,7.0,92,0.00,,,0.00,0,weatherlink.com 1.10,2013-03-04 11:07:00,
2013-03-04 03:22:00,47.6,45.0,30.10,East,88,2.0,7.0,92,0.00,,,0.00,0,weatherlink.com 1.10,2013-03-04 11:22:00,
2013-03-04 03:37:00,47.6,45.0,30.09,SE,133,3.0,9.0,92,0.00,,,0.00,0,weatherlink.com 1.10,2013-03-04 11:37:00,
2013-03-04 03:52:00,47.5,45.0,30.09,SW,229,5.0,10.0,92,0.00,,,0.00,0,weatherlink.com 1.10,2013-03-04 11:52:00,
2013-03-04 04:07:00,47.6,45.0,30.10,SSE,163,4.0,10.0,92,0.00,,,0.00,0,weatherlink.com 1.10,2013-03-04 12:07:00,
2013-03-04 04:22:00,47.5,46.0,30.10,WSW,245,4.0,12.0,93,0.00,,,0.00,0,weatherlink.com 1.10,2013-03-04 12:22:00,
2013-03-04 04:38:00,47.3,45.0,30.11,SSE,148,4.0,12.0,93,0.00,,,0.00,0,weatherlink.com 1.10,2013-03-04 12:38:00,
2013-03-04 04:53:00,47.2,45.0,30.11,South,176,6.0,9.0,93,0.00,,,0.00,0,weatherlink.com 1.10,2013-03-04 12:53:00,
2013-03-04 05:08:00,47.1,46.0,30.11,South,171,4.0,11.0,94,0.00,,,0.00,0,weatherlink.com 1.10,2013-03-04 13:08:00,
2013-03-04 05:23:00,47.1,46.0,30.11,SE,129,4.0,8.0,94,0.00,,,0.00,0,weatherlink.com 1.10,2013-03-04 13:23:00,
2013-03-04 05:38:00,46.9,45.0,30.11,SE,138,2.0,9.0,94,0.00,,,0.00,0,weatherlink.com 1.10,2013-03-04 13:38:00,
2013-03-04 05:53:00,46.8,45.0,30.11,SSE,159,6.0,7.0,94,0.00,,,0.00,0,weatherlink.com 1.10,2013-03-04 13:53:00,
2013-03-04 06:08:00,46.5,45.0,30.12,SW,226,3.0,9.0,93,0.00,,,0.00,0,weatherlink.com 1.10,2013-03-04 14:08:00,
2013-03-04 06:23:00,46.4,45.0,30.12,SW,227,3.0,9.0,94,0.00,,,0.00,0,weatherlink.com 1.10,2013-03-04 14:23:00,
2013-03-04 06:38:00,46.3,45.0,30.12,ESE,122,1.0,7.0,94,0.00,,,0.00,0,weatherlink.com 1.10,2013-03-04 14:38:00,
2013-03-04 06:53:00,46.4,45.0,30.12,East,101,2.0,9.0,94,0.00,,,0.00,0,weatherlink.com 1.10,2013-03-04 14:53:00,
2013-03-04 07:08:00,46.4,45.0,30.11,ESE,109,2.0,8.0,94,0.00,,,0.00,0,weatherlink.com 1.10,2013-03-04 15:08:00,
2013-03-04 07:23:00,46.6,45.0,30.12,SSE,148,3.0,7.0,94,0.00,,,0.00,0,weatherlink.com 1.10,2013-03-04 15:23:00,
2013-03-04 07:38:00,46.6,45.0,30.13,SSE,155,3.0,6.0,94,0.00,,,0.00,0,weatherlink.com 1.10,2013-03-04 15:38:00,
2013-03-04 07:53:00,46.6,45.0,30.14,West,268,5.0,7.0,94,0.00,,,0.00,0,weatherlink.com 1.10,2013-03-04 15:53:00,
2013-03-04 08:08:00,46.7,45.0,30.14,SSW,199,4.0,9.0,94,0.00,,,0.00,0,weatherlink.com 1.10,2013-03-04 16:08:00,
2013-03-04 08:23:00,46.7,45.0,30.15,SSE,166,1.0,9.0,93,0.00,,,0.00,0,weatherlink.com 1.10,2013-03-04 16:23:00,
2013-03-04 08:38:00,46.8,45.0,30.15,SSW,196,3.0,7.0,94,0.00,,,0.00,0,weatherlink.com 1.10,2013-03-04 16:38:00,
2013-03-04 08:53:00,47.0,45.0,30.15,SSW,192,2.0,6.0,93,0.00,,,0.00,0,weatherlink.com 1.10,2013-03-04 16:53:00,
2013-03-04 09:08:00,47.0,45.0,30.15,SW,227,5.0,6.0,92,0.00,,,0.00,0,weatherlink.com 1.10,2013-03-04 17:08:00,
2013-03-04 09:23:00,47.3,45.0,30.16,WSW,237,1.0,5.0,91,0.00,,,0.00,0,weatherlink.com 1.10,2013-03-04 17:23:00,
2013-03-04 09:38:00,47.7,45.0,30.16,WSW,237,3.0,7.0,90,0.00,,,0.00,0,weatherlink.com 1.10,2013-03-04 17:38:00,
2013-03-04 09:53:00,47.4,45.0,30.16,SSW,199,2.0,5.0,91,0.00,,,0.00,0,weatherlink.com 1.10,2013-03-04 17:53:00,
2013-03-04 10:08:00,48.0,45.0,30.16,WSW,245,2.0,5.0,90,0.00,,,0.00,0,weatherlink.com 1.10,2013-03-04 18:08:00,
2013-03-04 10:23:00,48.1,45.0,30.15,SW,229,0.0,4.0,90,0.00,,,0.00,0,weatherlink.com 1.10,2013-03-04 18:23:00,
2013-03-04 10:38:00,48.3,46.0,30.15,SW,229,1.0,5.0,90,0.00,,,0.00,0,weatherlink.com 1.10,2013-03-04 18:38:00,
2013-03-04 10:53:00,49.1,46.0,30.15,ESE,116,1.0,3.0,88,0.00,,,0.00,0,weatherlink.com 1.10,2013-03-04 18:53:00,
2013-03-04 11:08:00,49.3,45.0,30.15,SW,222,2.0,7.0,86,0.00,,,0.00,0,weatherlink.com 1.10,2013-03-04 19:08:00,
2013-03-04 11:23:00,49.6,46.0,30.16,WSW,246,3.0,7.0,86,0.00,,,0.00,0,weatherlink.com 1.10,2013-03-04 19:23:00,
2013-03-04 11:38:00,50.3,46.0,30.15,South,182,3.0,7.0,85,0.00,,,0.00,0,weatherlink.com 1.10,2013-03-04 19:38:00,
2013-03-04 11:53:00,49.9,46.0,30.15,SSW,203,3.0,9.0,85,0.00,,,0.00,0,weatherlink.com 1.10,2013-03-04 19:53:00,
2013-03-04 12:08:00,50.3,46.0,30.15,SSW,204,5.0,7.0,85,0.00,,,0.00,0,weatherlink.com 1.10,2013-03-04 20:08:00,
2013-03-04 12:23:00,50.4,45.0,30.14,South,171,4.0,11.0,83,0.00,,,0.00,0,weatherlink.com 1.10,2013-03-04 20:23:00,
2013-03-04 12:38:00,51.9,47.0,30.14,South,171,4.0,7.0,82,0.00,,,0.00,0,weatherlink.com 1.10,2013-03-04 20:38:00,
2013-03-04 12:53:00,51.8,46.0,30.13,SW,217,5.0,9.0,79,0.00,,,0.00,0,weatherlink.com 1.10,2013-03-04 20:53:00,
2013-03-04 13:08:00,52.3,46.0,30.13,South,170,4.0,8.0,79,0.00,,,0.00,0,weatherlink.com 1.10,2013-03-04 21:08:00,
2013-03-04 13:23:00,53.0,46.0,30.11,SSE,150,2.0,8.0,78,0.00,,,0.00,0,weatherlink.com 1.10,2013-03-04 21:23:00,
2013-03-04 13:38:00,54.4,47.0,30.10,South,184,2.0,8.0,75,0.00,,,0.00,0,weatherlink.com 1.10,2013-03-04 21:38:00,
2013-03-04 13:53:00,54.8,47.0,30.09,SE,144,2.0,8.0,76,0.00,,,0.00,0,weatherlink.com 1.10,2013-03-04 21:53:00,
2013-03-04 14:08:00,56.0,47.0,30.09,SSW,202,6.0,9.0,72,0.00,,,0.00,0,weatherlink.com 1.10,2013-03-04 22:08:00,
2013-03-04 14:24:00,55.5,46.0,30.08,ESE,117,5.0,10.0,71,0.00,,,0.00,0,weatherlink.com 1.10,2013-03-04 22:24:00,
2013-03-04 14:39:00,55.5,46.0,30.09,South,182,5.0,9.0,71,0.00,,,0.00,0,weatherlink.com 1.10,2013-03-04 22:39:00,
2013-03-04 14:54:00,54.9,47.0,30.10,SSE,165,5.0,10.0,74,0.00,,,0.00,0,weatherlink.com 1.10,2013-03-04 22:54:00,
2013-03-04 15:09:00,54.1,46.0,30.10,South,175,6.0,12.0,75,0.00,,,0.00,0,weatherlink.com 1.10,2013-03-04 23:09:00,
2013-03-04 15:24:00,54.8,46.0,30.09,SSW,200,7.0,10.0,72,0.00,,,0.00,0,weatherlink.com 1.10,2013-03-04 23:24:00,
2013-03-04 15:39:00,54.1,46.0,30.09,SSE,153,8.0,10.0,73,0.00,,,0.00,0,weatherlink.com 1.10,2013-03-04 23:39:00,
2013-03-04 15:54:00,54.9,46.0,30.08,SE,133,4.0,10.0,72,0.00,,,0.00,0,weatherlink.com 1.10,2013-03-04 23:54:00,
2013-03-04 16:09:00,55.0,45.0,30.08,SE,137,4.0,10.0,70,0.00,,,0.00,0,weatherlink.com 1.10,2013-03-05 00:09:00,
2013-03-04 16:24:00,54.6,45.0,30.08,SE,134,4.0,11.0,71,0.00,,,0.00,0,weatherlink.com 1.10,2013-03-05 00:24:00,
2013-03-04 16:39:00,54.6,45.0,30.08,ESE,114,5.0,8.0,71,0.00,,,0.00,0,weatherlink.com 1.10,2013-03-05 00:39:00,
2013-03-04 16:54:00,54.5,46.0,30.07,ESE,115,3.0,8.0,72,0.00,,,0.00,0,weatherlink.com 1.10,2013-03-05 00:54:00,
2013-03-04 17:09:00,54.0,45.0,30.07,SE,144,4.0,8.0,72,0.00,,,0.00,0,weatherlink.com 1.10,2013-03-05 01:09:00,
2013-03-04 17:24:00,53.2,45.0,30.07,ESE,118,7.0,9.0,74,0.00,,,0.00,0,weatherlink.com 1.10,2013-03-05 01:24:00,
2013-03-04 17:39:00,52.1,45.0,30.07,ESE,103,7.0,9.0,76,0.00,,,0.00,0,weatherlink.com 1.10,2013-03-05 01:39:00,
2013-03-04 17:54:00,51.2,44.0,30.07,ESE,106,4.0,8.0,77,0.00,,,0.00,0,weatherlink.com 1.10,2013-03-05 01:54:00,
2013-03-04 18:09:00,50.2,44.0,30.07,ESE,114,1.0,10.0,80,0.00,,,0.00,0,weatherlink.com 1.10,2013-03-05 02:09:00,
2013-03-04 18:24:00,49.5,44.0,30.07,ESE,118,3.0,9.0,82,0.00,,,0.00,0,weatherlink.com 1.10,2013-03-05 02:24:00,
2013-03-04 18:39:00,48.8,44.0,30.07,ESE,115,2.0,8.0,84,0.00,,,0.00,0,weatherlink.com 1.10,2013-03-05 02:39:00,
2013-03-04 18:54:00,48.5,44.0,30.07,SE,142,3.0,8.0,85,0.00,,,0.00,0,weatherlink.com 1.10,2013-03-05 02:54:00,
2013-03-04 19:09:00,48.1,44.0,30.06,South,178,2.0,7.0,86,0.00,,,0.00,0,weatherlink.com 1.10,2013-03-05 03:09:00,
2013-03-04 19:24:00,47.9,44.0,30.07,East,97,1.0,7.0,86,0.00,,,0.00,0,weatherlink.com 1.10,2013-03-05 03:24:00,
2013-03-04 19:39:00,47.6,44.0,30.07,SE,136,2.0,5.0,87,0.00,,,0.00,0,weatherlink.com 1.10,2013-03-05 03:39:00,
2013-03-04 19:54:00,47.5,44.0,30.07,SE,133,1.0,5.0,87,0.00,,,0.00,0,weatherlink.com 1.10,2013-03-05 03:54:00,
2013-03-04 20:09:00,47.2,44.0,30.07,SE,128,1.0,5.0,88,0.00,,,0.00,0,weatherlink.com 1.10,2013-03-05 04:09:00,
2013-03-04 20:24:00,46.9,44.0,30.07,SSE,156,2.0,4.0,88,0.00,,,0.00,0,weatherlink.com 1.10,2013-03-05 04:24:00,
2013-03-04 20:39:00,46.7,43.0,30.07,SE,133,0.0,3.0,88,0.00,,,0.00,0,weatherlink.com 1.10,2013-03-05 04:39:00,
2013-03-04 20:54:00,46.4,43.0,30.08,ESE,111,1.0,2.0,89,0.00,,,0.00,0,weatherlink.com 1.10,2013-03-05 04:54:00,
2013-03-04 21:09:00,46.3,43.0,30.08,West,261,0.0,4.0,89,0.00,,,0.00,0,weatherlink.com 1.10,2013-03-05 05:09:00,
2013-03-04 21:24:00,46.1,43.0,30.07,SE,136,0.0,3.0,89,0.00,,,0.00,0,weatherlink.com 1.10,2013-03-05 05:24:00,
2013-03-04 21:39:00,45.9,43.0,30.08,ESE,119,2.0,2.0,90,0.00,,,0.00,0,weatherlink.com 1.10,2013-03-05 05:39:00,
2013-03-04 21:54:00,46.1,43.0,30.07,SE,126,3.0,4.0,90,0.00,,,0.00,0,weatherlink.com 1.10,2013-03-05 05:54:00,
2013-03-04 22:09:00,45.8,43.0,30.07,SE,139,1.0,3.0,89,0.00,,,0.00,0,weatherlink.com 1.10,2013-03-05 06:09:00,
2013-03-04 22:24:00,45.7,43.0,30.08,SE,128,0.0,3.0,89,0.00,,,0.00,0,weatherlink.com 1.10,2013-03-05 06:24:00,
2013-03-04 22:39:00,45.1,42.0,30.07,ESE,105,0.0,2.0,89,0.00,,,0.00,0,weatherlink.com 1.10,2013-03-05 06:39:00,
2013-03-04 22:54:00,44.6,42.0,30.07,SSE,165,0.0,1.0,90,0.00,,,0.00,0,weatherlink.com 1.10,2013-03-05 06:54:00,
2013-03-04 23:09:00,44.1,42.0,30.07,SSE,148,0.0,0.0,91,0.00,,,0.00,0,weatherlink.com 1.10,2013-03-05 07:09:00,
2013-03-04 23:24:00,43.8,42.0,30.07,ESE,103,0.0,0.0,92,0.00,,,0.00,0,weatherlink.com 1.10,2013-03-05 07:24:00,
2013-03-04 23:39:00,43.3,41.0,30.07,South,173,0.0,0.0,92,0.00,,,0.00,0,weatherlink.com 1.10,2013-03-05 07:39:00,
2013-03-04 23:54:00,42.7,41.0,30.07,South,172,0.0,0.0,92,0.00,,,0.00,0,weatherlink.com 1.10,2013-03-05 07:54:00,